EW3530 Weather Reports


time (UTC)temp
C
wind
direction
speed
KPH
gust
KPH
rain 1hr
cm
rain 24hr
cm
rain mn
cm
humidity
%
barometer
mb
20260506231722 7 337 3.2 8.0 0.18 2.13 2.13 99 1016.4
20260506231220 7 69 0.0 1.6 0.18 2.13 2.13 99 1016.5
20260506230716 7 296 1.6 3.2 0.00 2.11 2.11 99 1016.4
20260506230213 7 63 6.4 8.0 0.00 2.11 2.11 99 1016.4
20260506225710 7 66 4.8 4.8 0.00 2.11 2.11 99 1016.1
20260506225207 7 43 4.8 4.8 0.00 2.11 2.11 99 1016.0
20260506224703 7 66 1.6 3.2 0.00 2.11 2.11 99 1016.2
20260506224201 7 284 4.8 8.0 0.00 2.11 2.11 99 1015.7
20260506223656 7 125 4.8 4.8 0.00 2.11 2.11 99 1015.9
20260506223152 7 39 6.4 9.7 0.00 2.11 2.11 99 1015.6
20260506222649 7 347 4.8 4.8 0.00 2.11 2.11 99 1015.6
20260506222145 7 58 6.4 8.0 0.00 2.11 2.11 99 1015.5
20260506221643 7 18 6.4 8.0 0.00 2.11 2.11 99 1015.5
20260506221141 7 77 3.2 3.2 0.00 2.11 2.11 99 1015.3
20260506220638 7 87 3.2 3.2 0.00 2.11 2.11 99 1015.3
20260506220133 7 309 4.8 8.0 0.00 2.11 2.11 99 1015.0
20260506215630 7 359 8.0 11.3 0.00 2.11 2.11 99 1014.4
20260506215125 7 57 8.0 11.3 0.00 2.11 2.11 99 1014.6
20260506214622 7 160 3.2 4.8 0.00 2.11 2.11 99 1014.2
20260506214120 7 3 4.8 4.8 0.00 2.11 2.11 99 1014.6
20260506213618 7 318 9.7 12.9 0.00 2.11 2.11 99 1014.6
20260506213115 7 70 3.2 8.0 0.00 2.11 2.11 99 1014.3
20260506212612 7 146 12.9 17.7 0.30 2.11 2.11 99 1014.1
20260506212107 8 22 6.4 11.3 1.07 2.11 2.11 99 1014.3
20260506211602 8 334 4.8 8.0 1.37 2.06 2.06 98 1014.3
20260506211100 8 10 8.0 11.3 1.98 1.98 1.98 98 1014.1
20260506210556 9 327 12.9 20.9 2.46 1.85 1.85 98 1013.5
20260506210053 10 12 6.4 8.0 1.55 1.63 1.63 98 1013.4
20260506205549 11 342 16.1 17.7 0.36 1.42 1.42 98 1013.3
20260506205044 11 14 8.0 9.7 0.00 1.37 1.37 97 1013.1
20260506204543 12 336 8.0 9.7 0.00 1.37 1.37 97 1013.2
20260506204040 15 12 4.8 4.8 0.00 1.37 1.37 97 1013.2
20260506203538 15 116 0.0 0.0 0.00 1.37 1.37 97 1013.0
20260506203034 15 182 8.0 12.9 0.00 1.37 1.37 97 1013.2
20260506202532 15 170 6.4 8.0 0.00 1.37 1.37 97 1013.1
20260506202028 15 144 4.8 4.8 0.00 1.37 1.37 97 1013.1
20260506201526 15 158 1.6 3.2 0.00 1.37 1.37 97 1013.0
20260506201022 15 138 4.8 4.8 0.00 1.37 1.37 97 1013.4
20260506200518 15 214 8.0 12.9 0.00 1.37 1.37 97 1013.4
20260506200015 15 197 6.4 9.7 0.00 1.37 1.37 97 1013.4
20260506195512 15 182 3.2 3.2 0.13 1.37 1.37 97 1013.4
20260506195008 15 175 1.6 3.2 0.13 1.37 1.37 97 1013.5
20260506194506 15 293 4.8 4.8 0.00 1.35 1.35 97 1013.7
20260506194002 15 87 1.6 3.2 0.00 1.35 1.35 97 1013.5
20260506193500 15 331 1.6 1.6 0.00 1.35 1.35 97 1013.8
20260506192956 15 110 1.6 1.6 0.18 1.35 1.35 97 1013.5
20260506192453 15 276 1.6 3.2 0.18 1.35 1.35 97 1013.6
20260506191944 15 114 0.0 1.6 0.00 1.32 1.32 97 1013.6
20260506191441 15 134 1.6 3.2 0.13 1.32 1.32 97 1013.5
20260506190937 15 149 4.8 4.8 0.13 1.32 1.32 97 1013.6
20260506190434 15 87 3.2 3.2 0.00 1.30 1.30 97 1013.6
20260506185931 15 120 4.8 4.8 0.18 1.30 1.30 97 1013.5
20260506185428 15 164 3.2 8.0 0.48 1.30 1.30 97 1013.7
20260506184925 15 10 4.8 8.0 0.43 1.27 1.27 97 1013.5
20260506184422 15 197 4.8 4.8 0.13 1.22 1.22 97 1013.5
20260506183919 15 175 8.0 11.3 0.18 1.19 1.19 97 1013.8
20260506183414 15 222 3.2 4.8 0.18 1.19 1.19 97 1013.8
20260506182912 15 210 1.6 3.2 0.13 1.17 1.17 97 1013.8
20260506182409 15 92 3.2 4.8 0.13 1.17 1.17 97 1013.8
20260506181907 15 283 8.0 8.0 0.30 1.17 1.17 97 1014.0
20260506181404 15 167 3.2 3.2 0.30 1.14 1.14 97 1013.9
20260506180901 15 134 4.8 4.8 0.13 1.12 1.12 97 1013.9
20260506180357 15 144 4.8 9.7 0.30 1.12 1.12 97 1013.9
20260506175854 15 98 3.2 4.8 0.36 1.09 1.09 97 1014.0
20260506175350 15 210 4.8 8.0 0.30 1.07 1.07 97 1013.9
20260506174847 15 135 0.0 1.6 0.30 1.04 1.04 97 1014.0
20260506174345 15 122 1.6 3.2 0.30 1.02 1.02 97 1014.1
20260506173843 15 249 6.4 11.3 0.13 0.99 0.99 97 1014.0
20260506173339 15 188 11.3 16.1 0.18 0.97 0.97 97 1014.0
20260506172836 15 248 4.8 8.0 0.30 0.97 0.97 97 1013.9
20260506172332 15 174 4.8 8.0 0.30 0.94 0.94 97 1013.9
20260506171830 15 88 4.8 8.0 0.30 0.91 0.91 97 1013.9
20260506171327 15 179 6.4 8.0 0.13 0.89 0.89 97 1014.1
20260506170825 15 153 4.8 8.0 0.30 0.89 0.89 97 1014.1
20260506170320 15 159 4.8 8.0 0.30 0.86 0.86 97 1014.2
20260506165820 15 159 4.8 8.0 0.30 0.84 0.84 97 1014.4
20260506165317 15 185 6.4 9.7 0.30 0.81 0.81 97 1014.4
20260506164813 15 15 3.2 3.2 0.30 0.79 0.79 98 1014.3
20260506164310 15 138 1.6 1.6 0.48 0.79 0.79 98 1014.4
20260506163807 15 178 3.2 4.8 0.48 0.76 0.76 98 1014.7
20260506163302 15 122 6.4 9.7 0.30 0.71 0.71 98 1014.6
20260506162758 15 107 4.8 4.8 0.30 0.69 0.69 98 1014.7
20260506162256 15 158 4.8 4.8 0.30 0.66 0.66 98 1014.7
20260506161753 15 174 0.0 1.6 0.30 0.64 0.64 98 1014.7
20260506161250 15 163 3.2 4.8 0.30 0.61 0.61 98 1015.0
20260506160748 15 126 6.4 9.7 0.48 0.58 0.58 97 1015.2
20260506160244 14 168 9.7 12.9 0.30 0.56 0.56 97 1015.0
20260506155743 14 140 8.0 9.7 0.30 0.51 0.51 97 1015.2
20260506155239 14 142 6.4 11.3 0.30 0.51 0.51 97 1015.1
20260506153347 14 93 6.4 8.0 0.18 0.41 0.41 97 1015.3
20260506152844 13 170 1.6 1.6 0.30 0.41 0.41 97 1015.4
20260506152341 13 127 1.6 3.2 0.30 0.38 0.38 97 1015.3
20260506151839 13 113 3.2 3.2 0.30 0.36 0.36 97 1015.3
20260506151335 13 118 3.2 3.2 0.13 0.33 0.33 97 1015.3
20260506150833 13 174 3.2 3.2 0.18 0.30 0.30 97 1015.7
20260506150329 13 126 1.6 3.2 0.30 0.30 0.30 97 1015.6
20260506145826 13 138 3.2 3.2 0.30 0.28 0.28 97 1015.7
20260506145323 13 120 1.6 1.6 0.30 0.25 0.25 97 1016.0
20260506144820 13 79 0.0 0.0 0.30 0.23 0.23 97 1015.8
20260506144317 13 1 0.0 1.6 0.30 0.20 0.20 97 1016.1
20260506143815 13 66 0.0 0.0 0.30 0.18 0.18 97 1016.0
20260506143312 13 64 0.0 0.0 0.36 0.15 0.15 96 1016.2
20260506142810 13 63 0.0 0.0 0.18 0.13 0.13 96 1016.3
20260506142308 13 356 1.6 1.6 0.13 0.10 0.10 96 1016.1
20260506141806 13 101 1.6 1.6 0.13 0.10 0.10 96 1015.9
20260506141304 13 112 1.6 1.6 0.18 0.08 0.08 96 1016.0
20260506140801 13 106 1.6 3.2 0.18 0.08 0.08 96 1016.3
20260506140258 13 136 3.2 3.2 0.00 0.05 0.05 96 1016.4
20260506135755 13 126 1.6 1.6 0.00 0.05 0.05 96 1016.3
20260506135251 13 136 0.0 0.0 0.00 0.05 0.05 96 1016.2
20260506134748 13 119 3.2 3.2 0.13 0.05 0.05 96 1015.8
20260506134244 13 85 1.6 1.6 0.13 0.05 0.05 96 1016.0
20260506133742 13 85 0.0 0.0 0.00 0.03 0.03 95 1015.8
20260506133238 13 80 1.6 1.6 0.00 0.03 0.03 95 1016.1
20260506132735 13 89 0.0 0.0 0.00 0.03 0.03 95 1015.9
20260506132232 13 89 1.6 1.6 0.00 0.03 0.03 95 1015.7
20260506131730 13 89 0.0 0.0 0.00 0.03 0.03 95 1015.8
20260506131226 13 89 1.6 1.6 0.00 0.03 0.03 94 1015.9
20260506130723 13 89 0.0 0.0 0.00 0.03 0.03 94 1016.0
20260506130220 13 89 0.0 0.0 0.00 0.03 0.03 94 1015.8
20260506125718 13 89 0.0 0.0 0.00 0.03 0.03 94 1015.8
20260506125215 12 89 0.0 1.6 0.18 0.03 0.03 93 1016.1
20260506124713 12 75 0.0 0.0 0.18 0.03 0.03 93 1015.9
20260506124211 12 75 0.0 0.0 0.00 0.00 0.00 93 1016.1
20260506123708 12 75 0.0 0.0 0.00 0.00 0.00 92 1016.3
20260506123207 12 75 0.0 0.0 0.00 0.00 0.00 93 1016.6
20260506122703 12 75 0.0 0.0 0.00 0.00 0.00 93 1016.6
20260506122201 12 75 0.0 1.6 0.00 0.00 0.00 93 1016.8
20260506121659 12 28 1.6 1.6 0.00 0.00 0.00 94 1016.7
20260506121155 12 96 1.6 1.6 0.00 0.00 0.00 95 1016.8
20260506120653 12 97 0.0 1.6 0.00 0.00 0.00 95 1016.6
20260506120150 12 297 1.6 1.6 0.00 0.00 0.00 95 1017.0
20260506115648 12 343 0.0 0.0 0.00 0.00 0.00 95 1016.6
20260506115146 12 343 1.6 1.6 0.00 0.00 0.00 96 1016.6
20260506114643 12 74 0.0 0.0 0.00 0.00 0.00 96 1016.4
20260506114141 12 70 0.0 0.0 0.00 0.00 0.00 96 1016.2
20260506113639 12 81 1.6 1.6 0.00 0.00 0.00 96 1016.1
20260506113136 12 77 0.0 1.6 0.00 0.00 0.00 96 1016.2
20260506112632 12 52 0.0 1.6 0.00 0.00 0.00 96 1016.3
20260506112130 12 301 1.6 1.6 0.00 0.00 0.00 96 1016.2
20260506111627 12 342 3.2 3.2 0.00 0.00 0.00 96 1015.7
20260506111125 12 332 1.6 3.2 0.00 0.00 0.00 96 1016.1
20260506110622 12 86 1.6 1.6 0.00 0.00 0.00 96 1016.1
20260506110119 12 45 0.0 1.6 0.00 0.00 0.00 96 1016.4
20260506105616 11 126 1.6 1.6 0.00 0.00 0.00 97 1016.2
20260506105113 11 163 0.0 0.0 0.00 0.00 0.00 97 1015.9
20260506104611 11 163 0.0 0.0 0.00 0.00 0.00 97 1016.4
20260506104108 11 164 0.0 0.0 0.00 0.00 0.00 97 1016.3
20260506103605 11 164 0.0 1.6 0.00 0.00 0.00 97 1016.2
20260506103102 11 78 1.6 1.6 0.00 0.00 0.00 97 1015.5
20260506102600 11 117 0.0 1.6 0.00 0.00 0.00 97 1015.9
20260506102058 11 90 0.0 0.0 0.00 0.00 0.00 97 1016.0
20260506101554 11 118 0.0 0.0 0.00 0.00 0.00 97 1016.0
20260506101051 11 102 0.0 0.0 0.00 0.00 0.00 96 1015.6
20260506100549 11 107 0.0 0.0 0.00 0.00 0.00 96 1015.7
20260506100047 11 123 1.6 1.6 0.00 0.00 0.00 96 1015.6
20260506095546 11 124 1.6 1.6 0.00 0.00 0.00 96 1015.5
20260506095042 11 113 0.0 0.0 0.00 0.00 0.00 96 1015.7
20260506094539 11 107 0.0 0.0 0.00 0.00 0.00 96 1015.8
20260506094037 11 107 0.0 1.6 0.00 0.00 0.00 96 1015.8
20260506093536 11 99 0.0 0.0 0.00 0.00 0.00 96 1015.8
20260506093033 11 113 1.6 1.6 0.00 0.00 0.00 96 1015.7
20260506092530 11 110 1.6 1.6 0.00 0.00 0.00 96 1015.5
20260506092027 11 115 0.0 0.0 0.00 0.00 0.00 96 1015.8
20260506091525 11 114 0.0 0.0 0.00 0.00 0.00 95 1015.9
20260506091022 11 118 0.0 0.0 0.00 0.00 0.00 95 1015.8
20260506090520 11 102 0.0 0.0 0.00 0.00 0.00 95 1016.0
20260506090016 11 113 0.0 0.0 0.00 0.00 0.00 95 1015.6
20260506085513 11 130 3.2 3.2 0.00 0.00 0.00 95 1015.8
20260506085009 11 124 1.6 1.6 0.00 0.00 0.00 95 1015.8
20260506084506 11 126 1.6 3.2 0.00 0.00 0.00 94 1016.0
20260506084002 11 116 0.0 0.0 0.00 0.00 0.00 94 1016.2
20260506083500 11 109 0.0 0.0 0.00 0.00 0.00 94 1016.0
20260506082957 11 93 0.0 0.0 0.00 0.00 0.00 94 1016.1
20260506082454 11 99 0.0 0.0 0.00 0.00 0.00 94 1016.2
20260506081949 11 102 0.0 0.0 0.00 0.00 0.00 94 1016.2
20260506081448 11 99 0.0 0.0 0.00 0.00 0.00 95 1016.4
20260506080945 12 92 0.0 0.0 0.00 0.00 0.00 95 1016.4
20260506080442 12 140 0.0 0.0 0.00 0.00 0.00 95 1016.3
20260506073426 12 140 0.0 0.0 0.00 0.00 0.00 95 1016.8
20260506072923 12 141 0.0 0.0 0.00 0.00 0.00 95 1016.9
20260506072420 12 84 1.6 1.6 0.00 0.00 0.00 95 1016.9
20260506071918 12 144 0.0 0.0 0.00 0.00 0.00 95 1016.9
20260506071416 12 100 1.6 1.6 0.00 0.00 0.00 95 1016.8
20260506070912 12 108 0.0 0.0 0.00 0.00 0.00 95 1016.8
20260506070409 12 131 0.0 0.0 0.00 0.00 0.00 95 1016.7
20260506062347 13 99 0.0 0.0 0.00 0.00 0.00 96 1017.2
20260506061842 13 113 0.0 0.0 0.00 0.00 0.00 96 1017.2
20260506061339 13 104 0.0 0.0 0.00 0.00 0.00 95 1017.3
20260506060837 13 112 0.0 0.0 0.00 0.00 0.00 95 1017.0
20260506060335 13 117 0.0 0.0 0.00 0.00 0.00 95 1017.1
20260506051307 13 122 0.0 0.0 0.00 0.00 0.00 94 1017.4
20260506050805 13 116 0.0 0.0 0.00 0.00 0.00 93 1017.3
20260506050302 13 113 0.0 0.0 0.00 0.00 0.00 93 1017.4
20260506044752 14 107 1.6 1.6 0.00 0.00 0.00 91 1017.3
20260506044250 14 127 1.6 1.6 0.00 0.00 0.00 91 1017.4
20260506043747 14 102 1.6 1.6 0.00 0.00 0.00 91 1017.5
20260506043244 14 105 0.0 0.0 0.00 0.00 0.00 90 1017.7
20260506042743 14 105 0.0 0.0 0.00 0.00 0.00 90 1017.7
20260506042241 15 311 1.6 1.6 0.00 0.00 0.00 89 1017.3
20260506041739 15 311 0.0 0.0 0.00 0.00 0.00 88 1017.4
20260506041236 15 76 0.0 0.0 0.00 0.00 0.00 88 1017.1
20260506040734 15 84 0.0 0.0 0.00 0.00 0.00 88 1017.2
20260506040230 15 37 4.8 4.8 0.00 0.00 0.00 87 1017.6
20260506035727 15 301 4.8 4.8 0.00 0.13 0.13 87 1017.4
20260506035224 15 2 4.8 8.0 0.00 0.13 0.13 87 1017.2
20260506034721 15 318 4.8 4.8 0.00 0.13 0.13 87 1017.2
20260506034218 15 351 8.0 11.3 0.00 0.13 0.13 88 1017.0
20260506033715 15 336 4.8 9.7 0.00 0.13 0.13 88 1017.0
20260506033212 16 15 4.8 8.0 0.00 0.13 0.13 88 1016.8
20260506032709 16 345 4.8 8.0 0.00 0.13 0.13 86 1016.6
20260506032206 16 79 1.6 1.6 0.00 0.13 0.13 85 1016.7
20260506031703 16 339 4.8 8.0 0.00 0.13 0.13 84 1016.7
20260506031200 16 68 1.6 1.6 0.13 0.13 0.13 87 1016.6
20260506030658 15 171 0.0 0.0 0.13 0.13 0.13 92 1017.1
20260506030155 15 165 0.0 0.0 0.00 0.10 0.10 92 1017.2
20260506025652 15 159 0.0 0.0 0.00 0.10 0.10 92 1016.8
20260506025148 15 134 1.6 1.6 0.00 0.10 0.10 91 1016.5
20260506024646 16 110 1.6 1.6 0.00 0.10 0.10 91 1016.3
20260506024142 16 145 0.0 1.6 0.00 0.10 0.10 90 1016.4
20260506023638 16 123 3.2 3.2 0.18 0.10 0.10 89 1016.3
20260506023136 16 100 0.0 1.6 0.18 0.10 0.10 87 1016.6
20260506022633 16 100 0.0 0.0 0.00 0.08 0.08 85 1016.5
20260506022130 17 98 1.6 1.6 0.00 0.08 0.08 82 1016.3
20260506021628 17 118 4.8 4.8 0.00 0.08 0.08 80 1016.3
20260506021125 17 97 0.0 0.0 0.00 0.08 0.08 79 1016.5
20260506020622 17 104 3.2 3.2 0.00 0.08 0.08 79 1016.3
20260506020120 16 110 1.6 1.6 0.00 0.08 0.08 83 1016.7
20260506015617 17 130 3.2 3.2 0.00 0.08 0.08 82 1016.5
20260506015114 17 126 3.2 3.2 0.00 0.08 0.08 79 1016.3
20260506014612 17 110 4.8 4.8 0.00 0.08 0.08 77 1016.2
20260506014106 17 124 3.2 3.2 0.00 0.08 0.08 80 1016.2
20260506013605 17 135 4.8 4.8 0.00 0.08 0.08 77 1016.3
20260506013102 17 125 4.8 4.8 0.00 0.08 0.08 76 1016.5
20260506012558 17 135 4.8 4.8 0.00 0.08 0.08 78 1016.0
20260506012054 17 109 1.6 1.6 0.00 0.08 0.08 78 1015.7
20260506011553 17 120 3.2 3.2 0.00 0.08 0.08 76 1015.8
20260506011048 17 129 3.2 3.2 0.00 0.08 0.08 77 1016.0
20260506010542 18 99 1.6 3.2 0.00 0.08 0.08 74 1015.9
20260506010038 18 122 3.2 3.2 0.00 0.08 0.08 72 1015.9
20260506005535 18 149 1.6 1.6 0.00 0.08 0.08 72 1016.0
20260506005031 18 163 1.6 1.6 0.00 0.08 0.08 72 1015.9
20260506004529 17 125 1.6 1.6 0.00 0.08 0.08 74 1015.8
20260506004025 17 132 4.8 4.8 0.00 0.08 0.08 75 1015.5
20260506003522 17 139 3.2 3.2 0.00 0.08 0.08 77 1015.5
20260506003018 17 116 4.8 4.8 0.00 0.08 0.08 77 1015.3
20260506002514 17 121 4.8 4.8 0.00 0.08 0.08 77 1015.2
20260506002010 17 149 6.4 8.0 0.00 0.08 0.08 77 1015.0
20260506001507 17 138 4.8 4.8 0.00 0.08 0.08 77 1015.0
20260506001004 17 111 1.6 1.6 0.00 0.08 0.08 75 1015.1
20260506000501 17 110 3.2 3.2 0.00 0.08 0.08 74 1015.3
20260505235958 18 126 1.6 1.6 0.00 0.08 0.08 72 1015.2
20260505235456 18 342 0.0 0.0 0.00 0.08 0.08 71 1015.1
20260505234952 18 115 1.6 1.6 0.00 0.08 0.08 72 1014.9
20260505234450 18 214 1.6 1.6 0.00 0.08 0.08 71 1014.6
20260505233947 18 118 11.3 12.9 0.00 0.08 0.08 74 1014.4
20260505233444 18 161 3.2 3.2 0.00 0.08 0.08 73 1014.7
20260505232941 18 137 4.8 4.8 0.00 0.08 0.08 71 1014.6
20260505232440 18 107 4.8 8.0 0.00 0.08 0.08 71 1014.4
20260505231936 18 141 4.8 4.8 0.00 0.08 0.08 71 1014.3